Location: Karcze
(52.0945°N, 22.4786°E)
Time: 20:39:11
(UTC+00:00)

Transit 2A Rocket - Pass Details

Date: 28 July 2021
Orbit: 586 x 917 km, 66.7° (Epoch: 27 September)

Event Time Altitude Azimuth Distance (km) Brightness Sun altitude
Rises 16:44:31 0° 282° (WNW) 2,967 10.1 13.6°
Reaches altitude 10° 16:47:26 10° 302° (WNW) 2,114 9.1 13.1°
Maximum altitude 16:50:43 18° 346° (NNW) 1,710 7.3 12.6°
Drops below altitude 10° 16:54:11 10° 29° (NNE) 2,263 7.4 12.1°
Sets 16:57:28 0° 48° (NE) 3,263 7.9 11.6°
